Location: Kuppenheim
(48.8299°N, 8.2568°E)
Time: 01:59:30
(UTC+00:00)

Envisat - Pass Details

Date: 04 December 2022
Orbit: 763 x 765 km, 98.2° (Epoch: 08 February)

Event Time Altitude Azimuth Distance (km) Brightness Sun altitude
Rises 05:20:27 0° 2° (N) 3,247 6.1 -16.0°
Reaches altitude 10° 05:23:21 10° 346° (NNW) 2,316 5.2 -15.6°
Enters shadow 05:25:31 17° 322° (NW) 1,858 4.5 -15.2°
